Hourly Data Report for October 06, 2017

All times are specified in Local Standard Time (LST). Add 1 hour to adjust for Daylight Saving Time where and when it is observed.

BACCARO PT
NOVA SCOTIA

43°27'03.000" N
65°28'18.000" W
4.60 m
8200255
71920
ACP

Download Data

Hourly Data (October 2017)
Hourly Data Report for October 6, 2017
Temp Definition
°C
Dew Point Temp Definition
°C
Rel Hum Definition
%
Wind Dir Definition
10's deg

Wind Spd Definition
km/h
Visibility Definition
km
Stn Press Definition
kPa
Hmdx Definition


Wind Chill Definition


Weather Definition


TIME
00:00 14.9 14.9 100 24 27   101.49     LegendNANA
01:00 15.0 15.0 100 24 27   101.49     LegendNANA
02:00 15.3 LegendMM LegendMM 25 27   101.47     LegendNANA
03:00 15.3 LegendMM LegendMM 27 23   101.44     LegendNANA
04:00 14.8 LegendMM LegendMM 30 17   101.49     LegendNANA
05:00 14.4 LegendMM LegendMM 30 14   101.55     LegendNANA
06:00 14.2 LegendMM LegendMM 28 13   101.61     LegendNANA
07:00 13.5 LegendMM LegendMM 29 11   101.64     LegendNANA
08:00 13.6 LegendMM LegendMM 31 10   101.68     LegendNANA
09:00 15.5 LegendMM LegendMM 28 8   101.71     LegendNANA
10:00 16.8 16.8 100 23 10   101.71     LegendNANA
11:00 17.5 16.9 97 23 15   101.74     LegendNANA
12:00 17.3 16.3 94 24 17   101.71     LegendNANA
13:00 17.4 15.4 88 26 20   101.75     LegendNANA
14:00 17.0 13.6 81 28 19   101.75     LegendNANA
15:00 16.3 14.5 89 29 13   101.73     LegendNANA
16:00 16.0 12.7 81 32 13   101.69     LegendNANA
17:00 15.5 12.7 83 32 7   101.71     LegendNANA
18:00 14.8 12.3 85 35 4   101.72     LegendNANA
19:00 14.7 12.9 89 35 2   101.78     LegendNANA
20:00 15.0 13.8 93 18 11   101.82     LegendNANA
21:00 15.1 14.1 94 19 12   101.84     LegendNANA
22:00 14.7 14.0 96 23 10   101.91     LegendNANA
23:00 13.1 12.6 97 31 7   101.97     LegendNANA

Notes on Data Quality.

Legend

  • E = Estimated
  • M = Missing
  • NA = Not Available
  • ‡ = Partner data that is not subject to review by the National Climate Archives
Date modified: